Regional Weather Roundup
Issued by NWS

Home | Current Version | Previous Version | Graphics & Text | Print | Product List | Glossary On
Versions: 1 2 3 4 5 6 7 8 9 10 11 12 13 14 15 16 17 18 19 20 21 22 23 24 25 26 27 28 29 30 31 32 33 34 35 36 37 38 39 40 41 42 43 44 45 46 47 48 49 50
000
ASUS43 KIND 261859
RWRIN

WEATHER ROUNDUP FOR INDIANA
NATIONAL WEATHER SERVICE INDIANAPOLIS IN
200 PM EST THU FEB 26 2015

NOTE: "FAIR" INDICATES FEW OR NO CLOUDS BELOW 12,000 FEET WITH NO
SIGNIFICANT WEATHER AND/OR OBSTRUCTIONS TO VISIBILITY.

* - STATION DOES NOT REPORT WEATHER SUCH AS PRECIPITATION OR FOG.

+ - STATION NOT QUALITY CONTROLLED BY THE NATIONAL WEATHER SERVICE.
    USE DATA WITH CAUTION...ESPECIALLY DEWPOINT AND RELATIVE
    HUMIDITY OBSERVATIONS.

INZ001>003-010>013-019-020-262000-
NORTHWEST INDIANA

CITY           SKY/WX    TMP DP  RH WIND       PRES   REMARKS
GARY /AIRPORT/ LGT SNOW  19   5  53 NE14G28   30.24S WCI   6
VALPARAISO     NOT AVBL

$$

LMZ046-743>745-262000-
SOUTHERN LAKE MICHIGAN

STATION/POSITION TIME  TEMP WIND        PRES
                       AIR  DIR/SP/G
                 (UTC) (F)  (DEG/KT/KT) (MB)
MICHIGAN CITY    1800   13   10/ 15/ 17   N/A

$$

INZ004-005-014>016-021>024-262000-
NORTH CENTRAL INDIANA

CITY           SKY/WX    TMP DP  RH WIND       PRES   REMARKS
ELKHART        PTSUNNY   18   1  49 N6        30.18S WCI   9
GOSHEN         PTSUNNY   16   6  65 N7        30.16F WCI   6
PERU/GRISSOM   CLOUDY    18   7  62 N8        30.15R WCI   7
SOUTH BEND     CLOUDY    17   5  59 N10       30.19S WCI   5

$$

INZ006>009-017-018-025>027-262000-
NORTHEAST INDIANA

CITY           SKY/WX    TMP DP  RH WIND       PRES   REMARKS
ANGOLA *+      SUNNY     14   0  52 N6        30.14R WCI   5
FORT WAYNE     PTSUNNY   17   6  62 NE9       30.15F WCI   6

$$

INZ028-029-035-036-043>045-051>053-262000-
WEST CENTRAL INDIANA

CITY           SKY/WX    TMP DP  RH WIND       PRES   REMARKS
GREENCASTLE +  CLOUDY    19   9  63 NE12      30.14S WCI   7
LAFAYETTE      CLOUDY    19   7  59 N8        30.18S WCI   9
TERRE HAUTE    CLOUDY    23  13  65 N12       30.16R WCI  12

$$

INZ030>032-037>040-046>048-054>057-064-065-262000-
CENTRAL INDIANA

CITY           SKY/WX    TMP DP  RH WIND       PRES   REMARKS
ANDERSON       CLOUDY    18   9  68 N12G17    30.14R WCI   5
COLUMBUS       CLOUDY    19  10  68 N17       30.13R WCI   4
GREENWOOD *+   CLOUDY    19   7  58 N10       30.12S WCI   8
INDIANAPOLIS   PTSUNNY   20   9  62 N10       30.12S WCI   9
-EAGLE CREEK   CLOUDY    18   8  65 NE9       30.13S WCI   7
KOKOMO *+      SUNNY     19   9  63 N14       30.15F WCI   6
MT COMFORT *+  MOSUNNY   19   1  45 N13       30.13R WCI   7
SHELBYVILLE    CLOUDY    20   9  62 N9        30.11S WCI   9

$$

INZ033-034-041-042-049-050-058-059-262000-
EAST CENTRAL INDIANA

CITY           SKY/WX    TMP DP  RH WIND       PRES   REMARKS
MUNCIE         CLOUDY    16   6  65 NE12      30.13R WCI   3

$$

INZ060-061-067>069-081>083-085>088-262000-
SOUTHWEST INDIANA

CITY           SKY/WX    TMP DP  RH WIND       PRES   REMARKS
EVANSVILLE     CLOUDY    28  19  69 NW13      30.13S FOG     WCI  17
HUNTINGBURG *+ MOSUNNY   27  19  74 N14G22    30.11S WCI  15

$$

INZ062-063-066-070>080-084-089>092-262000-
SOUTH CENTRAL AND SOUTHEAST INDIANA

CITY           SKY/WX    TMP DP  RH WIND       PRES   REMARKS
BLOOMINGTON    CLOUDY    23  13  65 N12       30.11R WCI  12
SEYMOUR +      CLOUDY    23  12  63 N15       30.11S WCI  10

$$



USA.gov is the U.S. government's official web portal to all federal, state and local government web resources and services.